Regional Weather Roundup
Issued by NWS Midland/Odessa, TX

Skip options and go directly to product.
Home | Oldest Version | Previous Version | Current Version | All | Graphics & Text | Save Text | Print | Product List | Glossary On

Skip product version selection by date and time.   
542
ASUS44 KMAF 300810
RWRMAF
MIDLAND AREA WEATHER ROUNDUP
NATIONAL WEATHER SERVICE MIDLAND TX
300 AM CDT MON MAY 30 2016

...IN SOUTHWEST TEXAS AND SOUTHEAST NEW MEXICO...

CITY           SKY/WX    TMP DP  RH WIND       PRES   REMARKS
ALPINE         CLOUDY    66  56  69 SW6       30.15F
ANDREWS        MOCLDY    58  55  89 E13       30.09F
ARTESIA        CLOUDY    61  55  82 S6        30.12S
BIG SPRING     CLEAR     57  55  90 NE16G22   30.06F
CARLSBAD       MOCLDY    61  54  77 E7        30.07F
DRYDEN           N/A     70  67  90 NE5       29.95F
FORT STOCKTON  NOT AVBL
GUAD PASS      CLOUDY    58  56  93 NE28      30.14S
HOBBS          MOCLDY    57  57 100 E9        30.12S
MARFA          CLEAR     58  55  90 N3        30.14F
MIDLAND AIRPK  CLEAR     62  56  79 E7        30.07F
MIDLAND INTL   CLEAR     62  55  77 E12       30.06F
ODESSA         CLEAR     61  55  81 E10G22    30.08F
PECOS          CLEAR     66  56  71 NE16      30.02R
PRESIDIO       FAIR      76  52  43 NE3       29.99F
SEMINOLE       MOCLDY    59  53  80 SE9       30.10F
SNYDER           N/A     59  57  94 E6        30.04F
WINK           NOT AVBL
$$
...OTHER STATIONS IN TEXAS...

CITY           SKY/WX    TMP DP  RH WIND       PRES   REMARKS
ABILENE        CLOUDY    63  63 100 E10       30.02F
AMARILLO       CLEAR     53  49  86 SW6       30.07S
AUSTIN         PTCLDY    72  71  97 SW5       30.01S FOG
BROWNSVILLE    CLEAR     77  76  96 SE6       29.93F
CORPUS CHRISTI PTCLDY    78  75  90 SE7       29.94F
DALLAS FTW     TSTM      71  65  81 S5        29.99F
DEL RIO        CLOUDY    77  71  82 SE6       29.92F
EL PASO        PTCLDY    75  40  28 SE9       30.02F
HOUSTON INT    PTCLDY    68  68 100 N3        29.99F
LUBBOCK        PTCLDY    56  53  90 SE6       30.07S
SAN ANGELO     TSTM      64  63  96 E8        30.06R
SAN ANTONIO    CLOUDY    75  72  90 E9        30.03R
WACO           CLOUDY    75  69  81 S9        30.01F
WICHITA FALLS  NOT AVBL
$$
...OTHER LOCATIONS IN NEW MEXICO...

CITY           SKY/WX    TMP DP  RH WIND       PRES   REMARKS
ALAMAGORDO     PTCLDY    72  32  23 S7        30.02F
ALBUQUERQUE    CLOUDY    64  16  15 SE3       30.08S
CANNON AFB     CLEAR     49  49 100 W1        30.12F
CLOVIS         CLEAR     48  45  87 SW9       30.12R
HOLLOMAN AFB   CLOUDY    74  34  23 S8        30.01S
ROSWELL        CLOUDY    62  51  67 S6        30.11F
RUIDOSO          N/A     50  48  93 SE6       30.26F
SANTA FE       CLEAR     57  44  62 SE18G26   30.15R
TRUTH OR CONSE CLEAR     67  32  27 SW7       30.05S
TUCUMCARI      CLEAR     51  49  92 NW8       30.13F
$$

USA.gov is the U.S. government's official web portal to all federal, state and local government web resources and services.